Simultaneous Nadir Overpasses (SNOs) Predictions

Prediction of SNOs between METOP-A and TERRA Satellite Orbit:

Table of predicted SNOs for the next 14.0 days since TLE Epoch: 9/1/2018
Index Date (METOP-A) Time (METOP-A) Lat,Lon (METOP-A) SZA (METOP-A ) Date (TERRA) Time (TERRA) Lat,Lon (TERRA) SZA (TERRA ) Distance(km) Time Diff (sec)
1 09/01/2018 19:15:44 -81.42, 120.68 103.60 09/01/2018 19:16:02 -81.43, 120.59 103.60 1.51 18
2 09/01/2018 20:06:24 81.42, -71.84 76.43 09/01/2018 20:05:29 81.42, -71.98 76.39 2.51 55
3 09/04/2018 14:49:59 -81.42,-172.80 102.54 09/04/2018 14:50:15 -81.43,-172.88 102.54 1.46 16
4 09/04/2018 15:40:39 81.42, -5.33 77.50 09/04/2018 15:39:42 81.42, -5.46 77.45 2.25 57
5 09/07/2018 10:24:16 -81.42,-106.68 101.51 09/07/2018 10:24:30 -81.41,-106.76 101.52 1.76 14
6 09/07/2018 11:14:55 81.42, 61.16 78.57 09/07/2018 11:13:56 81.42, 61.02 78.52 2.48 59
7 09/10/2018 05:58:32 -81.42, -40.19 100.42 09/10/2018 05:58:44 -81.42, -40.30 100.43 2.16 12
8 09/10/2018 06:49:11 81.42, 127.65 79.66 09/10/2018 06:48:10 81.42, 127.46 79.60 3.19 61
9 09/13/2018 01:32:47 -81.42, 26.29 99.32 09/13/2018 01:32:57 -81.41, 26.12 99.34 3.04 10




NCC Satellite Simultaneous Nadir Overpasses (SNOs) Prediction Service
